KA1STV Weather Reports


time (UTC)temp
F
wind
direction
speed
knots
gust
knots
rain 1hr
in
rain 24hr
in
rain mn
in
humidity
%
barometer
mb
20260504151115 65 331 0.9 1.7 0.00 0.00 0.00 36 1009.1
20260504150612 64 302 2.6 4.3 0.00 0.00 0.00 37 1009.1
20260504150109 63 244 4.3 6.1 0.00 0.00 0.00 40 1009.2
20260504141038 62 308 3.5 5.2 0.00 0.00 0.00 39 1009.6
20260504140534 62 23 1.7 1.7 0.00 0.00 0.00 40 1009.6
20260504130459 60 330 0.9 0.9 0.00 0.00 0.00 43 1009.9
20260504110346 48 5 0.9 0.9 0.00 0.00 0.00 64 1010.4
20260504100303 35 4 0.0 0.0 0.00 0.00 0.00 89 1010.2
20260504081657 37 352 0.0 0.0 0.00 0.00 0.00 89 1010.1
20260504081153 37 353 0.0 0.0 0.00 0.00 0.00 89 1010.0
20260504080649 37 353 0.0 0.0 0.00 0.00 0.00 88 1009.9
20260504080146 38 353 0.0 0.9 0.00 0.00 0.00 87 1009.9
20260504070114 38 9 0.0 0.0 0.00 0.00 0.00 86 1010.0
20260504050502 39 355 0.0 0.0 0.00 0.00 0.00 83 1010.5
20260504045959 39 355 0.0 0.0 0.00 0.00 0.00 84 1010.5
20260504045455 38 356 0.9 0.9 0.00 0.00 0.00 80 1010.7
20260504044951 38 356 0.0 0.9 0.00 0.00 0.00 78 1010.5
20260504044449 39 356 0.0 0.0 0.00 0.00 0.00 75 1010.5
20260504043946 39 356 0.0 0.0 0.00 0.00 0.00 74 1010.4
20260504043443 39 355 0.0 0.0 0.00 0.00 0.00 72 1010.4
20260504042941 40 355 0.0 0.0 0.00 0.00 0.00 71 1010.3
20260504042437 40 355 0.0 0.0 0.00 0.00 0.00 71 1010.4
20260504041934 39 355 0.0 0.9 0.00 0.00 0.00 71 1010.5
20260504041430 39 357 0.0 0.9 0.00 0.00 0.00 71 1010.7
20260504040926 40 357 0.0 0.9 0.00 0.00 0.00 69 1010.5
20260504040424 40 357 0.9 0.9 0.00 0.00 0.00 69 1010.3
20260504035920 40 358 0.0 0.9 0.00 0.00 0.00 68 1010.4
20260504035417 40 1 0.0 0.0 0.00 0.00 0.00 70 1010.5
20260504034914 41 359 0.0 0.0 0.00 0.00 0.00 68 1010.3
20260504034412 41 354 0.0 0.0 0.00 0.00 0.00 66 1010.4
20260504033908 40 346 0.9 0.9 0.00 0.00 0.00 65 1010.1
20260504033406 40 350 0.0 0.9 0.00 0.00 0.00 64 1010.2
20260504032903 40 359 0.0 0.9 0.00 0.00 0.00 66 1010.0
20260504032400 40 357 0.0 0.9 0.00 0.00 0.00 63 1009.9
20260504031856 40 347 0.9 0.9 0.00 0.00 0.00 67 1010.1
20260504031353 40 356 0.9 0.9 0.00 0.00 0.00 69 1010.0
20260504030850 40 359 0.9 0.9 0.00 0.00 0.00 66 1009.9
20260504030347 40 359 0.0 0.0 0.00 0.00 0.00 70 1010.1
20260504025843 40 350 0.9 0.9 0.00 0.00 0.00 70 1010.0
20260504025340 41 10 0.0 0.0 0.00 0.00 0.00 69 1010.1
20260504024837 41 347 0.9 0.9 0.00 0.00 0.00 64 1010.2
20260504024333 41 9 0.0 0.0 0.00 0.00 0.00 62 1010.0
20260504023830 42 5 0.0 0.0 0.00 0.00 0.00 59 1010.3
20260504023327 42 357 0.9 0.9 0.00 0.00 0.00 58 1010.3
20260504022822 42 331 0.9 0.9 0.00 0.00 0.00 62 1010.3
20260504022320 42 355 0.0 0.9 0.00 0.00 0.00 56 1010.1
20260504021816 42 0 0.0 0.9 0.00 0.00 0.00 63 1010.1
20260504021314 42 352 0.0 0.9 0.00 0.00 0.00 67 1010.1
20260504020811 42 346 0.9 0.9 0.00 0.00 0.00 58 1010.0
20260504020308 43 9 0.0 0.0 0.00 0.00 0.00 54 1010.0
20260504015803 43 356 0.9 0.9 0.00 0.00 0.00 57 1010.0
20260504015300 44 0 0.0 0.9 0.00 0.00 0.00 55 1009.8
20260504014756 43 9 0.0 0.0 0.00 0.00 0.00 60 1009.7
20260504014252 45 356 0.0 0.9 0.00 0.00 0.00 60 1009.6
20260504013750 45 317 0.9 0.9 0.00 0.00 0.00 49 1009.7
20260504013247 46 332 0.9 0.9 0.00 0.00 0.00 49 1009.7
20260504012743 46 352 0.9 0.9 0.00 0.00 0.00 46 1009.7
20260504012242 46 1 0.9 0.9 0.00 0.00 0.00 49 1009.8
20260504011738 46 7 0.0 0.0 0.00 0.00 0.00 48 1009.8
20260504011235 46 355 0.9 0.9 0.00 0.00 0.00 45 1009.5
20260504010731 46 3 0.0 0.9 0.00 0.00 0.00 54 1009.4
20260504010227 46 1 0.0 0.0 0.00 0.00 0.00 50 1009.3
20260504005724 46 351 0.0 0.9 0.00 0.00 0.00 51 1009.3
20260504005221 47 7 0.9 0.9 0.00 0.00 0.00 55 1009.4
20260504004719 47 1 0.0 0.9 0.00 0.00 0.00 50 1009.5
20260504004215 48 8 0.0 0.0 0.00 0.00 0.00 44 1009.1
20260504003712 48 4 0.0 0.0 0.00 0.00 0.00 46 1008.9
20260504003209 49 335 0.9 0.9 0.00 0.00 0.00 40 1008.9
20260504002706 49 351 0.0 0.9 0.00 0.00 0.00 40 1008.8
20260504002203 50 355 0.0 0.0 0.00 0.00 0.00 42 1008.8
20260504001701 50 347 0.9 0.9 0.00 0.00 0.00 41 1008.6
20260504001157 50 357 0.9 0.9 0.00 0.00 0.00 40 1008.6
20260504000654 50 338 0.9 0.9 0.00 0.00 0.00 41 1008.5
20260504000151 51 0 0.0 0.9 0.00 0.00 0.00 36 1008.4
20260503235649 51 357 0.0 0.9 0.00 0.00 0.00 37 1008.6
20260503235145 51 355 0.0 0.9 0.00 0.00 0.00 36 1008.3
20260503234644 51 343 0.9 0.9 0.00 0.00 0.00 36 1008.3
20260503234142 52 344 0.9 1.7 0.00 0.00 0.00 35 1008.5
20260503233638 51 311 1.7 1.7 0.00 0.00 0.00 35 1008.4
20260503233134 52 352 1.7 1.7 0.00 0.00 0.00 35 1008.2
20260503232631 52 7 0.9 0.9 0.00 0.00 0.00 38 1008.3
20260503232128 52 325 0.9 0.9 0.00 0.00 0.00 34 1008.1
20260503231626 52 354 0.9 0.9 0.00 0.00 0.00 34 1008.1
20260503231122 52 9 0.0 0.9 0.00 0.00 0.00 34 1008.2
20260503230619 52 332 1.7 2.6 0.00 0.00 0.00 35 1007.9
20260503230117 52 28 0.0 0.9 0.00 0.00 0.00 36 1008.0
20260503225614 52 4 1.7 1.7 0.00 0.00 0.00 39 1008.0
20260503225113 53 345 0.9 0.9 0.00 0.00 0.00 39 1007.9
20260503224611 53 321 0.9 1.7 0.00 0.00 0.00 37 1007.8
20260503224109 53 355 0.9 0.9 0.00 0.00 0.00 37 1007.9
20260503223607 53 351 1.7 2.6 0.00 0.00 0.00 40 1008.0
20260503223102 53 302 2.6 2.6 0.00 0.00 0.00 38 1008.0
20260503222600 53 333 1.7 1.7 0.00 0.00 0.00 40 1008.0
20260503222058 53 7 0.9 0.9 0.00 0.00 0.00 39 1008.1
20260503221556 53 334 1.7 1.7 0.00 0.00 0.00 39 1008.0
20260503221053 53 9 0.9 0.9 0.00 0.00 0.00 38 1008.0
20260503220549 53 14 0.9 0.9 0.00 0.00 0.00 40 1008.0
20260503220046 53 327 1.7 1.7 0.00 0.00 0.00 41 1008.0
20260503215543 53 357 1.7 2.6 0.00 0.00 0.00 38 1007.9
20260503215040 53 33 0.9 0.9 0.00 0.00 0.00 40 1008.0
20260503214539 52 290 2.6 2.6 0.00 0.00 0.00 42 1008.0
20260503214035 52 313 3.5 4.3 0.00 0.00 0.00 39 1008.1
20260503213533 51 343 0.9 0.9 0.00 0.00 0.00 40 1008.0
20260503213030 52 289 2.6 4.3 0.00 0.00 0.00 42 1008.0
20260503212527 52 358 0.0 0.0 0.00 0.00 0.00 42 1008.1
20260503212024 51 283 2.6 2.6 0.00 0.00 0.00 42 1008.0
20260503211521 51 261 2.6 2.6 0.00 0.00 0.00 42 1008.1
20260503211017 51 323 0.9 1.7 0.00 0.00 0.00 41 1007.7
20260503210514 52 313 3.5 6.1 0.00 0.00 0.00 42 1007.9
20260503210009 52 290 2.6 4.3 0.00 0.00 0.00 41 1008.1
20260503205506 52 316 2.6 2.6 0.00 0.00 0.00 42 1008.0
20260503205003 53 324 2.6 2.6 0.00 0.00 0.00 42 1007.8
20260503204500 53 2 1.7 1.7 0.00 0.00 0.00 43 1007.8
20260503203956 52 313 2.6 2.6 0.00 0.00 0.00 40 1008.1
20260503203454 53 325 2.6 2.6 0.00 0.00 0.00 41 1008.1
20260503202950 52 332 0.9 1.7 0.00 0.00 0.00 44 1008.1
20260503202449 51 332 1.7 1.7 0.00 0.00 0.00 45 1007.9
20260503201947 50 324 2.6 2.6 0.00 0.00 0.00 43 1008.0
20260503201444 51 306 4.3 6.1 0.00 0.00 0.00 43 1008.0
20260503200941 50 288 3.5 4.3 0.00 0.00 0.00 44 1007.9
20260503200437 50 6 0.9 0.9 0.00 0.00 0.00 44 1007.9
20260503195934 51 359 1.7 1.7 0.00 0.00 0.00 43 1008.1
20260503195432 51 313 2.6 4.3 0.00 0.00 0.00 44 1007.8
20260503194927 51 301 3.5 5.2 0.00 0.00 0.00 44 1007.9
20260503194425 51 289 1.7 1.7 0.00 0.00 0.00 45 1007.8
20260503193915 51 292 4.3 6.1 0.00 0.00 0.00 42 1007.8
20260503193410 51 240 2.6 2.6 0.00 0.00 0.00 45 1008.1
20260503192906 51 297 4.3 5.2 0.00 0.00 0.00 43 1008.1
20260503192403 51 320 2.6 2.6 0.00 0.00 0.00 44 1007.9
20260503191859 50 248 6.1 7.0 0.00 0.00 0.00 42 1008.1
20260503191356 50 358 3.5 5.2 0.00 0.00 0.00 43 1007.9
20260503190852 50 353 3.5 4.3 0.00 0.00 0.00 42 1007.9
20260503190350 51 349 4.3 5.2 0.00 0.00 0.00 42 1008.0
20260503185847 51 343 1.7 1.7 0.00 0.00 0.00 44 1008.0
20260503185343 50 296 4.3 5.2 0.00 0.00 0.00 43 1008.2
20260503184843 50 298 3.5 5.2 0.00 0.00 0.00 44 1008.0
20260503184339 50 311 3.5 6.1 0.00 0.00 0.00 45 1008.1
20260503183835 50 8 2.6 4.3 0.00 0.00 0.00 45 1008.0
20260503183332 50 339 1.7 2.6 0.00 0.00 0.00 44 1007.8
20260503182830 50 305 2.6 4.3 0.00 0.00 0.00 44 1008.1
20260503182329 50 286 3.5 5.2 0.00 0.00 0.00 46 1008.0
20260503181825 51 306 5.2 6.1 0.00 0.00 0.00 44 1007.9
20260503181322 51 317 2.6 2.6 0.00 0.00 0.00 43 1007.9
20260503180819 51 278 2.6 2.6 0.00 0.00 0.00 42 1007.7
20260503180317 51 285 4.3 5.2 0.00 0.00 0.00 45 1007.9
20260503175813 51 253 5.2 6.1 0.00 0.00 0.00 43 1007.9
20260503175311 50 305 1.7 1.7 0.00 0.00 0.00 45 1008.1
20260503174806 50 294 2.6 4.3 0.00 0.00 0.00 45 1008.0
20260503174305 51 305 3.5 4.3 0.00 0.00 0.00 45 1008.0
20260503173800 52 6 2.6 5.2 0.00 0.00 0.00 48 1007.8
20260503173256 50 283 2.6 2.6 0.00 0.00 0.00 47 1008.1
20260503172753 49 322 1.7 1.7 0.00 0.00 0.00 49 1008.1
20260503172250 49 341 2.6 4.3 0.00 0.00 0.00 51 1008.2
20260503171746 48 342 3.5 4.3 0.00 0.00 0.00 51 1008.5
20260503171244 48 6 0.9 0.9 0.00 0.00 0.00 52 1008.4
20260503170741 48 329 4.3 5.2 0.00 0.00 0.00 50 1008.1
20260503170237 49 6 1.7 2.6 0.00 0.00 0.00 51 1008.2
20260503160159 50 315 1.7 4.3 0.00 0.00 0.00 49 1007.7